When you browse on this site, cookies collect data to enhance your experience and personalize the content and advertising you see.
Visit our Privacy Policy to learn more. By continuing to use the site, you agree to this use of cookies and data.
  • In Hungary
  • List of Countries
  • For 7 days
  • Water Temperature
  • Weather Map
  • News
  • Weather Widgets
  • user-avatar
    Login

    Hourly Weather Lewice

    Today, 18 September, Wednesday

    Time Temperature Precipitation Wind Pressure Humidity
    00:00 +8°C° 0.3 mm 9 mps 755 mmHg 77%
    01:00 +8°C° 0 mm 9 mps 756 mmHg 80%
    02:00 +8°C° 0.1 mm 9 mps 756 mmHg 78%
    03:00 +9°C° 0.1 mm 8 mps 757 mmHg 76%
    04:00 +9°C° 0.1 mm 8 mps 757 mmHg 75%
    05:00 +9°C° 0.3 mm 7 mps 758 mmHg 75%
    06:00 +9°C° 0.3 mm 7 mps 758 mmHg 76%
    07:00 +10°C° 0.3 mm 7 mps 759 mmHg 76%
    08:00 +10°C° 0.3 mm 7 mps 759 mmHg 74%
    09:00 +11°C° 0.3 mm 8 mps 759 mmHg 71%
    10:00 +12°C° 0.3 mm 9 mps 760 mmHg 68%
    11:00 +12°C° 0.2 mm 9 mps 760 mmHg 67%
    12:00 +13°C° 0.2 mm 9 mps 760 mmHg 66%
    13:00 +13°C° 0.2 mm 9 mps 760 mmHg 64%
    14:00 +13°C° 0.3 mm 9 mps 760 mmHg 66%
    15:00 +12°C° 0.3 mm 9 mps 761 mmHg 68%
    16:00 +12°C° 0.3 mm 9 mps 761 mmHg 70%
    17:00 +11°C° 0.1 mm 8 mps 761 mmHg 70%
    18:00 +11°C° 0.1 mm 8 mps 761 mmHg 69%
    19:00 +10°C° 0.1 mm 7 mps 761 mmHg 69%
    20:00 +10°C° 0.1 mm 6 mps 761 mmHg 71%
    21:00 +9°C° 0.1 mm 5 mps 762 mmHg 73%
    22:00 +9°C° 0.1 mm 5 mps 762 mmHg 74%
    23:00 +8°C° 0.4 mm 4 mps 762 mmHg 78%

    Tomorrow, 19 September, Thursday

    Time Temperature Precipitation Wind Pressure Humidity
    00:00 +8°C° 0.4 mm 4 mps 763 mmHg 83%
    01:00 +8°C° 0.4 mm 3 mps 763 mmHg 87%
    02:00 +8°C° 0.1 mm 3 mps 763 mmHg 85%
    03:00 +9°C° 0.1 mm 3 mps 763 mmHg 84%
    04:00 +9°C° 0.1 mm 3 mps 763 mmHg 82%
    05:00 +8°C° 0.1 mm 4 mps 764 mmHg 80%
    06:00 +10°C° 0.1 mm 4 mps 764 mmHg 78%
    07:00 +10°C° 0.1 mm 4 mps 764 mmHg 75%
    08:00 +12°C° 0 mm 4 mps 765 mmHg 69%
    09:00 +13°C° 0 mm 5 mps 765 mmHg 62%
    10:00 +14°C° 0 mm 5 mps 766 mmHg 55%
    11:00 +14°C° 0 mm 5 mps 766 mmHg 52%
    12:00 +15°C° 0 mm 5 mps 766 mmHg 48%
    13:00 +15°C° 0 mm 4 mps 766 mmHg 45%
    14:00 +15°C° 0 mm 4 mps 766 mmHg 49%
    15:00 +14°C° 0 mm 4 mps 766 mmHg 52%
    16:00 +14°C° 0 mm 4 mps 766 mmHg 55%
    17:00 +13°C° 0 mm 4 mps 766 mmHg 63%
    18:00 +12°C° 0 mm 4 mps 766 mmHg 71%
    19:00 +10°C° 0 mm 4 mps 766 mmHg 79%
    20:00 +10°C° 0 mm 4 mps 767 mmHg 80%
    21:00 +8°C° 0 mm 4 mps 767 mmHg 82%
    22:00 +8°C° 0 mm 4 mps 767 mmHg 84%
    23:00 +9°C° 0 mm 3 mps 767 mmHg 84%

    Day after tomorrow, 20 September, Friday

    Time Temperature Precipitation Wind Pressure Humidity
    00:00 +8°C° 0 mm 3 mps 767 mmHg 84%
    01:00 +8°C° 0 mm 3 mps 767 mmHg 84%
    02:00 +8°C° 0 mm 3 mps 767 mmHg 86%
    03:00 +8°C° 0 mm 3 mps 767 mmHg 88%
    04:00 +7°C° 0 mm 3 mps 767 mmHg 90%
    05:00 +8°C° 0 mm 3 mps 767 mmHg 90%
    06:00 +9°C° 0 mm 3 mps 767 mmHg 89%
    07:00 +9°C° 0 mm 3 mps 766 mmHg 88%
    08:00 +11°C° 0 mm 3 mps 767 mmHg 82%
    09:00 +12°C° 0 mm 4 mps 767 mmHg 75%
    10:00 +14°C° 0 mm 4 mps 767 mmHg 69%
    11:00 +14°C° 0 mm 5 mps 767 mmHg 68%
    12:00 +14°C° 0 mm 5 mps 767 mmHg 66%
    13:00 +15°C° 0 mm 5 mps 766 mmHg 65%
    14:00 +14°C° 0 mm 5 mps 766 mmHg 70%
    15:00 +14°C° 0 mm 5 mps 766 mmHg 74%
    16:00 +13°C° 0 mm 5 mps 765 mmHg 79%
    17:00 +13°C° 0.1 mm 5 mps 765 mmHg 81%
    18:00 +13°C° 0.1 mm 5 mps 765 mmHg 83%
    19:00 +13°C° 0.1 mm 4 mps 765 mmHg 85%
    20:00 +12°C° 0 mm 4 mps 765 mmHg 87%
    21:00 +12°C° 0 mm 4 mps 765 mmHg 89%
    22:00 +12°C° 0 mm 4 mps 765 mmHg 91%
    23:00 +12°C° 0 mm 4 mps 765 mmHg 93%

    21 September, Saturday

    Time Temperature Precipitation Wind Pressure Humidity
    00:00 +11°C° 0 mm 4 mps 765 mmHg 94%
    01:00 +11°C° 0 mm 4 mps 765 mmHg 96%
    02:00 +11°C° 0 mm 4 mps 765 mmHg 96%
    03:00 +10°C° 0 mm 4 mps 765 mmHg 96%
    04:00 +10°C° 0 mm 4 mps 765 mmHg 96%
    05:00 +10°C° 0 mm 4 mps 765 mmHg 96%
    06:00 +11°C° 0 mm 4 mps 765 mmHg 95%
    07:00 +10°C° 0 mm 5 mps 765 mmHg 94%
    08:00 +12°C° 0 mm 5 mps 765 mmHg 88%
    09:00 +14°C° 0 mm 5 mps 765 mmHg 81%
    10:00 +16°C° 0 mm 5 mps 765 mmHg 75%
    11:00 +17°C° 0 mm 4 mps 765 mmHg 70%
    12:00 +18°C° 0 mm 4 mps 764 mmHg 66%
    13:00 +19°C° 0 mm 4 mps 764 mmHg 61%
    14:00 +19°C° 0 mm 3 mps 764 mmHg 61%
    15:00 +19°C° 0 mm 3 mps 763 mmHg 61%
    16:00 +19°C° 0 mm 2 mps 763 mmHg 62%
    17:00 +18°C° 0 mm 2 mps 763 mmHg 68%
    18:00 +16°C° 0 mm 1 mps 763 mmHg 74%
    19:00 +14°C° 0 mm 1 mps 762 mmHg 80%
    20:00 +14°C° 0 mm 1 mps 762 mmHg 80%
    21:00 +14°C° 0 mm 2 mps 762 mmHg 80%
    22:00 +12°C° 0 mm 3 mps 762 mmHg 79%
    23:00 +12°C° 0 mm 3 mps 762 mmHg 78%

    22 September, Sunday

    Time Temperature Precipitation Wind Pressure Humidity
    00:00 +11°C° 0 mm 3 mps 762 mmHg 76%
    01:00 +11°C° 0 mm 3 mps 762 mmHg 75%
    02:00 +11°C° 0 mm 3 mps 761 mmHg 73%
    03:00 +11°C° 0 mm 3 mps 761 mmHg 72%
    04:00 +10°C° 0 mm 3 mps 760 mmHg 70%
    05:00 +10°C° 0 mm 3 mps 760 mmHg 70%
    06:00 +11°C° 0 mm 3 mps 760 mmHg 70%
    07:00 +11°C° 0 mm 3 mps 760 mmHg 70%
    08:00 +13°C° 0 mm 4 mps 760 mmHg 64%
    09:00 +15°C° 0 mm 4 mps 759 mmHg 58%
    10:00 +18°C° 0 mm 4 mps 759 mmHg 52%
    11:00 +19°C° 0 mm 4 mps 759 mmHg 50%
    12:00 +20°C° 0 mm 4 mps 758 mmHg 47%
    13:00 +21°C° 0 mm 4 mps 758 mmHg 45%
    14:00 +21°C° 0 mm 3 mps 758 mmHg 47%
    15:00 +21°C° 0 mm 3 mps 757 mmHg 48%
    16:00 +20°C° 0 mm 3 mps 757 mmHg 50%
    17:00 +19°C° 0 mm 2 mps 757 mmHg 54%
    18:00 +17°C° 0 mm 2 mps 757 mmHg 58%
    19:00 +15°C° 0 mm 2 mps 757 mmHg 62%
    20:00 +15°C° 0 mm 2 mps 757 mmHg 63%
    21:00 +14°C° 0 mm 2 mps 757 mmHg 63%
    22:00 +12°C° 0 mm 3 mps 757 mmHg 64%
    23:00 +13°C° 0 mm 2 mps 756 mmHg 65%

    23 September, Monday

    Time Temperature Precipitation Wind Pressure Humidity
    00:00 +13°C° 0 mm 2 mps 756 mmHg 66%
    01:00 +13°C° 0 mm 2 mps 756 mmHg 67%
    02:00 +12°C° 0 mm 2 mps 756 mmHg 68%
    03:00 +12°C° 0 mm 2 mps 756 mmHg 69%
    04:00 +12°C° 0 mm 2 mps 756 mmHg 70%
    05:00 +12°C° 0 mm 2 mps 756 mmHg 70%
    06:00 +12°C° 0 mm 2 mps 756 mmHg 70%
    07:00 +12°C° 0 mm 2 mps 756 mmHg 70%
    08:00 +14°C° 0 mm 1 mps 756 mmHg 64%
    09:00 +16°C° 0 mm 1 mps 756 mmHg 59%
    10:00 +19°C° 0 mm 1 mps 756 mmHg 53%
    11:00 +20°C° 0 mm 1 mps 756 mmHg 50%
    12:00 +21°C° 0 mm 1 mps 756 mmHg 48%
    13:00 +22°C° 0 mm 1 mps 755 mmHg 45%
    14:00 +21°C° 0 mm 2 mps 756 mmHg 49%
    15:00 +20°C° 0 mm 2 mps 756 mmHg 52%
    16:00 +20°C° 0 mm 3 mps 756 mmHg 56%
    17:00 +18°C° 0 mm 2 mps 756 mmHg 62%
    18:00 +16°C° 0 mm 2 mps 756 mmHg 69%
    19:00 +14°C° 0 mm 2 mps 756 mmHg 75%
    20:00 +14°C° 0 mm 2 mps 756 mmHg 76%
    21:00 +13°C° 0 mm 3 mps 757 mmHg 78%
    22:00 +13°C° 0 mm 3 mps 757 mmHg 79%
    23:00 +13°C° 0 mm 3 mps 757 mmHg 82%
    Show more